Location: Budapest
(47.4979°N, 19.0402°E)
Time: 15:30:18
(UTC+01:00)

Envisat - Pass Details

Date: 15 October 2017
Orbit: 764 x 766 km, 98.2° (Epoch: 18 December)

Event Time Altitude Azimuth Distance (km) Brightness Sun altitude
Exits shadow 19:02:12 16° 88° (E) 1,897 4.4 -12.0°
Maximum altitude 19:04:08 20° 60° (ENE) 1,710 4.3 -12.3°
Drops below altitude 10° 19:07:46 10° 14° (NNE) 2,316 5.4 -12.9°
Sets 19:10:37 0° 358° (N) 3,248 6.3 -13.4°
